Temp_Advection
nan nan nan nan nan nan nan nan nan nan nan nan nan nan nan nan nan nan nan nan nan nan nan nan nan nan nan nan nan nan nan nan nan nan nan nan nan nan nan nan nan nan nan nan nan nan nan nan nan nan nan nan nan nan nan nan nan nan nan nan nan nan nan nan nan nan nan nan nan
nan -0 -1 -1 -1 -1 -1 -0 -0 -1 -1 -0 -0 -0 -0 -0 -0 -1 -1 -1 -1 -1 -0 0 0 -0 -0 -0 -0 -0 0 1 1 0 -1 -1 -1 -1 -1 -1 -0 -0 -0 0 1 1 1 1 0 0 0 0 1 1 1 2 1 -0 -1 -1 -1 -1 -1 0 0 0 0 0 nan
nan -0 -1 -1 -1 -1 -1 -0 -0 -1 -1 -0 -0 -0 -0 -0 -0 -1 -1 -1 -1 -0 -0 0 0 0 -0 -0 0 0 1 2 1 -0 -1 -1 -1 -1 -1 -1 -0 -0 0 0 0 0 0 0 -0 -0 0 0 0 1 1 1 -0 -1 -1 -1 -1 -1 0 1 1 0 0 0 nan
nan -1 -1 -1 -1 -1 -1 0 -0 -1 -1 -0 -0 -0 -0 -0 -0 -1 -1 -1 -1 -0 -0 0 0 1 0 0 0 1 2 2 1 -1 -1 -2 -1 -1 -1 -0 0 -0 -0 0 -0 -0 -0 -0 -0 -0 -0 0 1 1 1 -0 -1 -1 -1 -1 -1 0 1 2 1 0 0 0 nan
nan -1 -2 -2 -2 -1 -0 -0 -1 -1 -1 -0 -0 -0 -0 -0 -0 -1 -1 -1 -1 -0 0 0 0 0 0 1 1 1 1 1 -0 -1 -2 -2 -1 -1 -1 -0 0 0 0 -0 -0 -0 -0 -0 -0 0 0 1 1 1 -0 -1 -1 -1 -1 -1 -0 1 1 1 0 0 1 0 nan
nan -1 -2 -2 -2 -1 -0 -0 -0 -1 -0 -0 -0 -0 -0 -0 -0 -1 -1 -1 -0 -0 0 1 0 -0 -0 0 0 1 1 0 -1 -2 -2 -1 -1 -1 -1 0 1 1 0 -0 -1 -0 -0 0 0 1 1 1 1 0 -0 -1 -1 -1 -1 -0 0 0 0 0 0 1 1 0 nan
nan -1 -2 -2 -1 -0 0 -0 -0 -0 -0 -0 -0 -0 -0 -0 -0 -1 -1 -1 -0 0 0 0 -0 -0 -0 -1 -0 0 0 -0 -1 -1 -1 -1 -1 -1 -0 1 1 1 -0 -1 -1 -0 0 0 1 1 1 1 0 -0 -1 -1 -1 -1 -0 0 0 -0 -0 0 1 1 0 0 nan
nan -1 -1 -1 -1 0 0 -0 -0 -0 -0 -0 -0 -0 -0 -0 -0 -0 -1 -0 -0 0 0 0 -0 -1 -1 -1 -1 -0 -0 -1 -1 -1 -1 -1 -1 -0 1 2 1 0 -0 -1 -0 0 0 1 1 1 0 -0 -0 -1 -1 -1 -1 -0 0 0 -0 -0 0 1 1 1 0 0 nan
nan -1 -1 -1 0 0 -0 -0 -0 -0 -0 -0 -0 -0 -0 -0 -0 -0 -0 0 0 1 1 0 -0 -1 -1 -0 -1 -1 -1 -1 -1 -1 -1 -1 -1 0 1 1 1 -0 -0 -0 0 0 1 1 0 -0 -0 -0 -0 -1 -1 -1 -0 -0 -0 -0 -0 0 1 1 1 0 -0 -0 nan
nan -1 -1 0 0 0 -0 -0 -0 -0 0 0 -0 -0 -0 -1 -1 -0 0 0 1 1 1 0 -1 -1 -1 -0 -1 -1 -2 -1 -1 -1 -1 -1 -1 0 1 1 0 -0 -0 -0 0 1 1 0 -0 -0 -0 -0 -0 -0 -0 -0 -0 -0 -0 -1 -0 1 1 1 0 -0 -0 -0 nan
nan -0 -0 0 -0 -0 -0 -0 -0 -0 -0 -0 -0 -0 -1 -1 -1 -0 -0 -0 0 0 -0 -1 -0 -0 -1 -0 -0 -1 -1 -1 -1 -1 -1 -1 -0 0 1 1 0 0 -0 -0 0 1 0 -0 -0 -0 -0 -0 0 0 0 -0 -0 -1 -1 -0 0 1 1 0 -0 -0 -0 0 nan
nan -1 -1 -1 -1 -1 -0 -0 -0 -0 -0 -0 -0 -1 -1 -1 -0 -0 -1 -1 -0 -0 -1 -1 0 0 -0 -0 0 -0 -1 -1 -1 -1 -1 -1 -0 1 1 1 1 0 -0 0 0 0 -0 -0 -1 -0 0 0 0 0 -0 -0 -1 -1 -0 0 1 1 0 0 -0 -0 0 0 nan
nan -1 -1 -1 -0 -0 -0 -0 -0 -0 -0 -0 -0 -1 -0 -0 0 -0 -1 -1 -0 -0 -0 -0 -0 0 0 -0 0 0 -0 -1 -1 -1 -1 -1 0 1 1 1 0 0 0 0 0 0 -0 -1 -0 0 0 0 0 -0 -0 -1 -0 -0 0 1 1 0 0 0 -0 -0 -0 -0 nan
nan -1 -0 -0 -0 -0 -0 -0 -0 -0 -0 -0 -0 -0 0 1 -0 -0 -0 -1 -1 -0 0 -0 -1 -0 -0 -0 0 0 -0 -0 -1 -1 -1 -0 1 2 1 1 0 -0 0 0 0 -0 -0 -0 0 0 0 -0 -0 -0 -0 -0 0 1 1 1 0 0 0 0 0 -0 -0 -0 nan
nan -0 -0 -0 -0 -0 -0 -1 -1 -1 -0 -0 -0 -0 0 0 -1 -0 0 -0 -1 -0 -0 0 -1 -1 -0 -0 0 0 -0 -0 -0 -1 -0 1 2 2 1 0 -0 0 0 0 -0 -0 -0 0 0 0 -0 -0 -0 -0 0 0 1 1 1 0 1 1 1 0 0 0 -0 -0 nan
nan -0 -0 -0 -0 -0 -1 -1 -1 -0 -0 -0 -0 0 0 -1 -1 -0 0 0 -0 -0 -1 -0 -0 -0 -0 -0 0 0 -0 -0 -0 -0 1 2 3 2 1 0 0 0 0 -0 -1 -0 0 0 -0 -0 -0 -0 0 0 1 1 1 1 1 1 1 1 1 1 1 0 0 0 nan
nan -1 -1 -0 -0 -0 -0 -0 -0 -0 -0 -0 0 0 -1 -1 -0 -0 0 1 1 0 -0 -0 1 1 0 -0 0 0 -0 -0 -0 1 2 3 2 1 0 0 1 0 -0 -1 -0 0 0 -0 -1 -0 0 0 1 1 1 1 1 1 1 1 1 1 1 1 1 0 0 0 nan
nan -0 -1 -1 -0 -0 0 0 0 0 0 -0 -0 -0 -1 -1 -0 -1 0 1 1 1 1 1 1 1 0 0 0 0 0 -0 1 2 3 2 1 1 0 1 0 -0 -1 -0 -0 -0 -0 -1 -0 0 1 1 1 1 1 1 1 1 1 1 1 1 1 1 1 1 0 0 nan
nan -0 -0 -0 -0 -0 -0 -0 -0 -0 -0 -0 -1 -1 -1 -0 -1 -1 -0 0 0 1 1 1 1 1 1 1 0 0 0 1 2 2 2 1 1 1 0 -0 -1 -1 -1 -0 -0 -0 -0 -0 0 1 1 1 1 1 1 1 1 0 0 0 1 1 1 1 0 0 0 0 nan
nan 0 0 -0 -0 -1 -1 -1 -1 -1 -1 -1 -0 -1 -0 0 -0 -0 -0 0 0 0 0 -0 -0 0 1 1 1 0 0 1 2 2 1 0 0 -0 -1 -2 -2 -1 -0 -0 -0 -0 0 1 1 1 1 1 1 1 1 0 0 0 0 1 1 0 0 0 0 0 0 0 nan
nan 1 0 0 -1 -1 -1 -1 -1 -1 -1 -1 -0 -0 -0 0 -0 -0 -0 -0 0 0 0 -0 -0 -0 0 0 0 0 0 1 1 0 -0 -0 -1 -1 -2 -2 -1 -0 -0 -0 -0 0 1 1 1 1 1 1 1 0 0 0 0 1 1 1 0 0 -0 -0 0 0 0 0 nan
nan 1 1 0 0 -0 -0 -0 -0 -1 -1 -0 -1 -0 0 0 -0 -0 0 0 0 0 0 0 0 -0 -0 0 0 -0 0 0 0 -0 -0 -1 -1 -2 -1 -0 0 0 -0 0 1 1 1 1 1 1 1 0 0 0 0 1 1 1 1 1 0 -0 -0 -0 0 0 0 0 nan
nan 1 0 0 0 0 0 0 0 -0 -0 -0 -0 0 0 -0 -0 -0 -0 0 0 0 0 0 0 0 0 0 0 0 -0 -0 0 -0 -0 -1 -1 -0 0 1 1 0 1 1 1 1 1 0 0 0 0 0 -0 -0 0 1 2 2 2 1 0 -1 -0 -0 0 0 0 0 nan
nan -0 -0 -0 0 0 0 0 0 -0 -0 -1 -1 -0 -0 -0 -0 -0 -0 0 0 0 0 0 0 0 0 0 0 0 0 0 -0 -0 -0 -0 0 1 1 1 1 1 1 1 1 1 0 0 -0 -0 0 0 -0 -1 -1 0 2 2 3 1 -0 -1 -1 -0 -0 0 0 0 nan
nan -1 -0 -0 0 -0 -0 -0 -0 -1 -1 -1 -1 -1 -1 -1 -1 -1 -0 0 1 1 0 0 0 0 0 0 0 0 0 0 -0 -0 -0 0 1 1 1 1 1 1 1 0 0 1 1 0 0 -0 -0 -0 -1 -1 -1 -0 1 2 2 1 0 -1 -1 -0 -0 -0 0 0 nan
nan -0 -0 -0 -0 -0 -0 -0 -0 -1 -1 -1 -1 -1 -1 -1 -1 -1 -1 -0 0 1 1 0 0 0 0 0 0 0 0 0 0 0 0 0 0 1 1 1 1 1 0 0 0 1 1 1 1 0 -0 -1 -1 -1 -1 -1 0 1 1 1 0 -0 -0 -0 -0 -0 -0 0 nan
nan -0 -0 -0 -0 -0 -0 -0 -0 -1 -1 -1 -0 -0 -0 -0 -0 -1 -1 -1 0 0 1 1 0 0 0 0 0 0 0 0 0 0 0 0 0 0 0 0 0 0 0 0 0 1 1 1 1 1 0 -1 -1 -1 -1 -1 -1 -0 0 0 0 0 -0 -0 -0 -0 -0 0 nan
nan -0 -0 -0 -0 -0 -0 0 0 -0 -0 -0 -0 -0 -0 -0 -0 -0 -0 -0 0 1 1 1 1 1 0 0 1 1 0 0 0 0 0 0 0 0 0 0 0 -0 -0 -0 0 1 1 1 1 1 1 0 -0 -0 -0 -1 -1 -1 -0 0 0 0 0 0 0 0 0 0 nan
nan 0 -0 -0 -0 0 0 0 0 0 -0 -0 -0 -0 0 0 0 -0 -0 0 0 1 1 1 1 1 1 1 1 0 0 0 0 0 0 0 1 1 0 0 -0 -1 -0 0 1 1 1 0 1 1 1 1 0 0 0 0 -0 -0 -0 0 0 0 0 0 0 0 0 0 nan
nan -0 -0 -0 0 0 0 0 0 0 0 0 0 0 0 0 0 0 0 0 0 0 1 1 1 1 1 0 0 0 0 0 0 1 1 0 0 0 0 0 -0 -0 0 0 1 0 0 0 0 1 1 1 1 1 1 1 0 0 0 0 0 0 0 0 0 0 0 0 nan
nan -0 -0 0 0 0 0 0 0 0 0 0 0 0 0 0 0 -0 -0 -0 -0 0 0 0 0 0 0 0 0 0 0 0 0 1 1 1 0 0 0 -0 -0 -0 0 0 0 0 0 0 -0 -0 0 1 1 1 1 0 0 0 0 0 0 0 0 0 0 0 0 0 nan
nan -0 -0 -0 0 0 0 0 0 0 0 0 0 0 0 0 -0 -0 -0 -0 -0 -0 -0 0 0 0 -0 0 0 0 0 0 0 1 1 1 1 0 0 -0 -0 -0 0 0 0 0 0 0 -0 -0 0 0 1 0 0 0 0 0 0 -0 -0 -0 -0 -0 -0 -0 -0 -0 nan
nan 0 -0 0 0 0 0 0 0 0 0 0 0 0 0 -0 -0 -0 -0 -0 -0 -0 -0 -0 0 0 0 -0 -0 -0 0 0 0 1 1 2 2 1 1 0 -0 -0 0 0 0 0 0 0 0 0 0 1 1 0 0 0 -0 -0 -0 -0 -0 -0 -0 -0 -0 -0 -0 -0 nan
nan 0 0 0 0 0 0 0 0 0 0 0 0 0 0 0 -0 -0 -0 0 -0 -0 -0 0 0 0 -0 0 -0 -0 0 1 1 1 2 2 2 2 2 1 -0 -0 0 1 0 0 0 0 1 1 1 1 0 0 0 0 -0 0 -0 -0 -0 -0 -0 -0 -0 -0 -0 -0 nan
nan -0 0 0 0 0 0 0 0 0 0 0 0 0 0 0 0 0 0 0 0 0 0 0 0 0 0 0 0 0 0 0 1 1 2 2 2 2 2 1 0 0 0 1 1 0 0 0 1 0 0 0 0 0 0 -0 -0 -0 -0 -0 -0 -0 -0 -0 -0 -0 -0 -0 nan
nan -0 -0 0 0 0 0 0 0 0 0 0 0 0 0 0 0 0 0 0 -0 0 0 0 0 -0 -0 0 0 0 0 0 0 1 1 1 2 2 1 0 -0 -0 0 0 0 0 0 0 0 0 -0 -0 -0 -0 -0 -0 -0 -0 -0 -0 0 -0 -0 -0 -0 -0 -0 -0 nan
nan 0 -0 -0 0 0 0 0 0 0 0 0 0 0 0 1 1 0 0 0 0 -0 0 0 0 0 0 0 0 0 0 0 0 0 1 1 1 1 0 -0 -0 -0 0 0 0 0 -0 0 0 0 -0 -0 -0 -0 -0 -0 -0 -0 -0 -0 -0 0 0 -0 -0 -0 -0 -0 nan
nan 0 0 -0 -0 0 0 0 0 0 0 0 0 0 0 0 0 1 1 0 0 -0 -0 -0 -0 0 0 0 0 0 0 0 0 1 0 0 0 -0 -0 -0 0 0 0 0 0 -0 -0 0 0 0 0 0 -0 -0 -0 -0 -0 -0 -0 -0 -0 -0 -0 0 -0 0 0 -0 nan
nan 0 0 0 -0 0 0 0 0 0 -0 -0 0 0 0 0 0 1 1 1 0 -0 -1 -0 -0 0 0 -0 -0 -0 0 0 0 1 1 0 0 -0 -0 -0 -0 -0 0 0 0 0 0 0 0 0 0 0 0 -0 -0 -0 -0 -0 -0 -0 -0 -0 -0 0 0 0 0 0 nan
nan 0 0 0 0 0 0 0 0 0 0 -0 -0 0 0 0 0 0 1 1 -0 -0 -0 -0 -0 -0 -0 -0 -0 -0 0 0 0 1 1 0 0 -0 -0 -0 -0 -0 0 0 0 0 0 0 0 0 0 0 0 -0 -0 -0 -0 -0 -0 -0 -0 -0 -0 -0 0 0 0 0 nan
nan nan nan nan nan nan nan nan nan nan nan nan nan nan nan nan nan nan nan nan nan nan nan nan nan nan nan nan nan nan nan nan nan nan nan nan nan nan nan nan nan nan nan nan nan nan nan nan nan nan nan nan nan nan nan nan nan nan nan nan nan nan nan nan nan nan nan nan nan
Wind_Speed
27 27 27 26 26 27 28 29 29 29 28 27 26 25 25 25 24 24 23 22 22 21 22 22 22 23 24 25 26 27 28 29 29 28 29 30 30 30 31 33 36 39 41 42 43 44 45 45 45 44 43 42 42 42 42 41 40 39 37 34 31 28 26 24 21 17 15 14 13
27 27 27 27 27 27 27 28 29 28 27 26 25 24 24 24 24 23 22 21 21 20 20 20 20 21 22 24 25 27 28 29 29 28 29 30 30 30 30 33 36 39 40 42 43 43 44 43 43 42 42 42 42 42 41 40 38 36 33 31 29 27 28 28 24 17 12 11 10
27 28 27 27 27 26 27 28 28 28 27 26 24 23 23 23 23 23 22 21 20 19 19 18 19 19 21 23 25 27 29 29 29 28 29 30 30 29 30 34 37 39 40 41 42 42 42 42 42 41 41 41 41 41 41 39 36 33 30 29 28 29 31 32 27 20 13 8 7
26 28 28 27 26 25 26 27 28 27 26 25 23 23 23 23 22 22 21 20 19 18 18 18 18 19 21 23 26 28 29 29 29 28 29 29 29 29 31 33 36 39 40 41 41 41 41 40 40 41 41 41 41 41 40 38 35 31 30 29 29 31 33 32 28 22 14 6 4
26 28 28 27 25 25 25 26 26 26 25 24 23 23 23 22 22 21 20 19 18 18 18 19 19 20 21 23 27 29 29 28 28 28 28 29 28 29 31 33 35 38 40 40 40 40 40 40 40 41 41 42 41 41 39 36 34 31 30 29 30 31 32 30 27 23 14 5 3
26 27 27 25 24 24 24 24 25 25 24 23 23 23 23 22 21 20 20 19 18 17 18 21 21 20 21 24 27 29 29 28 28 28 28 28 27 28 30 33 35 37 39 39 39 39 39 40 41 42 42 42 41 40 38 35 33 32 30 30 30 30 29 28 26 21 13 7 7
25 26 25 24 23 22 22 23 23 24 24 23 23 23 22 21 20 20 19 18 16 17 20 23 21 20 22 25 28 29 29 28 28 28 27 27 26 27 30 35 37 38 39 38 38 39 39 40 42 42 42 42 40 39 37 35 33 32 31 30 29 28 28 27 25 18 11 9 10
25 25 24 23 22 21 21 22 23 23 23 23 22 22 21 20 20 19 18 16 16 19 23 24 21 20 23 24 27 29 29 28 28 27 26 25 25 27 31 36 38 38 38 37 37 38 40 41 41 42 41 40 39 38 36 34 33 31 29 28 26 26 27 26 22 15 10 10 11
23 23 22 21 20 20 20 21 22 22 23 22 21 21 20 20 19 17 15 14 17 22 24 22 20 22 24 23 25 28 29 28 27 27 25 24 24 27 31 34 36 37 36 36 37 38 39 40 40 40 39 39 37 36 35 33 31 29 27 25 24 25 25 23 17 12 9 10 10
22 21 20 20 20 20 20 21 21 22 22 22 21 20 20 19 17 14 13 14 19 23 22 20 22 25 25 21 23 26 28 28 27 25 24 23 23 26 30 33 35 35 36 36 36 38 39 39 39 38 37 36 36 35 33 31 29 26 24 23 23 23 22 19 14 11 10 10 10
21 20 20 20 21 21 20 20 21 21 21 21 21 20 18 17 14 13 13 15 20 21 20 19 24 27 25 20 20 24 27 27 26 25 24 23 23 24 28 31 33 34 35 35 36 37 37 37 36 36 35 34 33 32 30 28 25 24 22 22 21 21 20 17 14 11 10 9 9
20 20 21 21 21 21 20 20 21 21 21 21 20 18 16 14 14 14 15 17 20 21 20 20 23 25 23 19 19 22 25 26 26 25 24 23 23 24 26 30 32 33 34 35 35 36 36 35 34 34 33 33 31 29 27 25 23 22 21 21 21 20 19 16 13 11 9 8 9
20 21 21 21 21 21 20 20 20 21 20 19 18 16 15 15 16 16 16 19 22 22 20 21 22 23 21 18 18 21 24 25 25 25 24 23 22 24 27 29 31 32 33 34 35 35 34 33 33 32 31 30 27 25 23 22 21 21 21 20 20 19 18 15 12 9 7 8 9
20 20 20 20 20 20 19 19 19 19 18 17 16 14 15 16 16 16 17 21 24 23 21 22 23 23 20 17 18 21 23 24 24 24 23 23 23 25 27 30 31 32 33 34 34 33 32 32 31 30 28 26 24 22 20 20 20 20 19 18 19 18 16 12 10 7 6 8 10
20 19 19 19 18 18 17 17 17 17 17 16 15 14 14 15 15 16 20 24 25 24 22 24 27 25 20 16 18 20 22 23 23 23 23 24 25 27 29 30 31 32 33 33 32 31 30 30 29 26 24 22 20 19 18 18 18 17 16 17 18 17 14 12 9 7 6 9 10
20 20 19 18 17 16 16 16 16 17 16 16 15 15 14 13 14 18 24 26 26 25 24 25 28 26 20 15 17 20 22 22 22 23 24 26 28 29 30 30 31 32 32 31 30 29 28 27 24 22 19 18 17 17 16 16 15 14 15 17 17 16 14 13 10 7 8 10 10
18 18 18 18 17 17 17 18 18 18 17 17 16 15 14 12 16 23 27 28 26 25 25 25 26 24 19 16 18 20 21 21 22 23 25 28 29 30 30 30 30 30 30 28 27 27 26 23 20 17 15 14 14 14 14 13 13 15 17 18 16 16 16 14 11 10 10 10 10
15 16 18 20 19 19 19 19 19 19 18 17 16 15 14 14 20 26 27 27 26 25 25 24 22 20 18 18 19 20 20 19 20 23 26 27 28 28 28 28 28 27 26 25 24 23 21 17 15 13 12 12 12 13 13 14 16 18 19 18 18 18 17 15 13 11 11 10 9
17 19 21 22 22 22 21 20 19 19 18 17 15 14 14 18 25 27 26 26 26 25 25 23 20 18 17 18 19 19 18 17 20 23 25 26 26 26 25 25 24 23 22 21 19 17 14 12 11 11 11 12 13 14 16 19 20 20 20 20 20 20 18 16 14 12 11 10 9
23 24 25 25 24 23 21 19 19 19 18 17 16 15 17 23 27 27 26 25 26 26 25 23 21 19 18 18 18 17 15 16 20 23 24 24 23 23 22 22 22 21 19 16 13 11 10 10 10 11 13 15 17 19 21 22 22 22 22 22 21 20 18 16 15 13 12 10 9
26 28 28 27 25 21 17 14 17 20 20 19 18 19 22 26 26 26 26 26 25 24 23 22 20 19 18 17 17 15 14 16 20 21 21 21 20 20 20 21 21 19 15 11 9 9 10 11 13 15 18 20 22 23 24 24 24 24 24 23 21 19 18 17 15 14 12 11 10
27 27 26 24 19 14 11 15 20 23 23 22 22 23 24 25 25 25 26 25 24 22 21 20 19 18 16 15 14 13 14 16 18 19 19 18 18 20 21 22 20 16 12 9 9 11 14 16 19 22 24 25 26 26 26 26 26 25 24 22 20 19 18 17 16 15 14 12 11
25 23 19 15 10 10 14 21 24 26 25 25 25 25 24 24 24 25 25 24 22 21 20 19 17 16 14 13 12 12 13 15 17 18 17 16 18 20 21 20 17 13 11 11 14 17 20 23 25 26 27 28 28 28 28 28 27 25 23 21 19 18 18 17 17 15 14 13 11
18 15 11 7 9 15 21 25 26 27 27 26 26 25 24 23 23 23 23 22 21 20 19 17 16 14 13 12 10 10 11 13 15 16 16 16 17 18 18 17 14 12 13 16 19 22 26 28 29 29 28 28 28 28 28 28 26 24 22 20 18 18 18 18 17 16 14 13 12
10 8 7 11 17 22 25 26 26 27 27 26 25 24 23 22 22 22 21 21 20 19 18 16 15 13 12 11 10 8 9 11 13 14 14 16 16 16 16 15 14 15 18 21 24 27 28 28 28 28 28 27 27 28 28 27 25 23 20 19 18 19 19 18 17 16 15 13 12
9 11 14 20 24 25 26 26 27 26 26 24 23 23 22 22 22 21 21 20 19 18 18 16 15 14 12 11 10 9 10 11 13 14 15 16 16 16 16 17 19 21 24 26 27 28 28 27 27 27 28 28 28 28 27 26 24 22 20 19 19 19 19 18 17 16 15 13 12
17 19 22 24 25 26 26 27 27 26 24 23 23 23 22 22 21 21 21 20 20 19 18 17 16 14 13 12 11 13 14 14 15 15 16 16 17 18 20 23 25 27 27 28 29 29 28 28 28 28 28 28 28 27 27 25 24 22 21 20 20 19 18 16 15 14 13 12 11
22 23 24 25 26 27 27 27 26 25 23 23 22 22 22 22 21 21 21 21 20 20 19 18 17 15 14 13 14 16 17 17 17 16 17 18 21 24 27 29 29 30 30 30 30 29 28 27 26 26 26 26 27 26 26 25 24 23 22 21 20 18 16 14 12 11 10 10 9
22 23 24 25 27 27 27 26 25 24 23 22 22 22 22 22 22 22 21 21 21 21 21 20 18 17 17 17 18 18 18 17 18 19 22 25 28 31 32 32 32 32 31 30 28 27 25 25 25 25 25 25 25 25 25 24 24 23 22 21 19 17 15 12 10 8 8 7 7
21 22 23 25 26 26 26 25 24 23 23 22 22 22 22 22 22 22 22 22 22 22 21 20 20 20 20 20 19 19 19 21 23 27 30 33 34 35 35 34 34 33 30 28 26 25 25 25 25 25 25 25 24 24 24 24 23 23 21 20 18 15 13 10 8 7 6 6 5
20 21 22 24 25 25 25 24 24 23 23 23 23 23 23 23 23 23 22 22 22 21 20 20 20 21 21 20 20 22 25 29 32 34 36 37 37 37 36 35 33 31 28 26 25 25 25 26 26 26 25 25 24 24 23 23 22 21 20 18 16 13 11 9 8 7 6 6 5
20 21 22 23 24 25 24 24 23 23 23 23 23 23 23 23 23 22 21 21 20 20 20 20 20 21 21 22 25 29 33 36 38 39 39 39 38 37 36 34 32 29 27 25 25 25 25 25 25 25 24 24 23 23 22 21 20 19 18 16 14 12 11 9 8 8 8 7 7
21 22 23 24 24 24 24 23 23 22 22 23 23 24 24 23 22 21 20 20 19 20 20 20 20 22 24 27 32 36 38 40 40 40 39 39 38 37 35 33 30 28 27 26 25 25 24 24 23 23 23 23 22 22 21 20 19 18 17 15 14 12 11 10 10 10 9 9 8
24 24 24 24 24 24 24 23 22 22 23 23 24 24 23 23 23 22 21 20 19 19 19 20 22 25 29 33 37 40 41 41 40 40 39 39 38 37 35 32 30 28 26 25 24 23 22 22 22 22 22 22 22 21 20 19 18 17 16 15 14 13 12 11 11 11 10 9 7
24 25 25 25 25 25 24 23 23 23 23 24 24 24 23 22 22 22 21 20 20 20 21 23 26 30 34 38 40 41 41 41 40 39 38 38 38 36 34 31 29 27 25 24 23 22 22 22 22 22 22 22 22 21 20 19 18 17 16 15 14 13 12 11 11 10 9 7 5
24 25 25 26 26 25 25 24 23 23 23 24 24 25 24 23 22 21 20 20 21 22 25 28 32 36 39 41 41 41 40 39 38 37 36 36 36 34 32 30 28 26 24 23 23 23 22 22 22 22 22 22 22 22 21 19 18 17 16 15 14 13 12 11 11 9 7 5 3
24 24 25 26 26 25 25 24 24 24 24 25 26 26 26 25 24 22 21 21 23 27 31 35 38 41 42 41 40 38 36 35 35 34 34 33 33 31 30 29 28 26 25 24 23 23 22 22 22 22 22 22 22 21 20 19 17 16 15 14 13 11 10 10 9 7 5 3 2
24 24 24 25 25 25 25 24 24 25 26 27 27 27 26 26 25 24 23 24 28 33 38 41 42 42 41 39 37 35 33 33 32 32 32 31 30 30 29 29 28 27 26 24 23 22 22 22 21 21 21 21 20 19 18 17 16 14 13 12 11 10 9 8 7 5 3 2 1
24 24 24 25 25 25 26 26 26 27 28 28 28 27 27 27 27 28 28 30 34 39 42 44 42 40 38 36 35 33 32 32 32 32 32 31 30 29 29 29 28 27 26 24 23 22 22 21 21 20 19 19 18 17 16 15 14 13 11 10 9 9 8 7 6 4 2 1 1
25 25 25 25 26 27 27 28 28 28 28 28 28 28 28 29 30 32 34 37 40 42 43 42 40 37 35 34 34 33 33 33 33 32 32 31 30 29 28 28 28 27 26 25 23 22 21 21 20 19 18 16 16 15 14 13 12 11 10 9 8 8 7 6 5 3 2 2 3
26 26 26 27 27 27 28 29 29 29 29 28 29 29 30 31 33 36 39 42 43 43 41 39 37 35 34 34 34 34 34 34 33 33 32 31 30 29 28 27 27 26 25 24 23 22 20 19 18 17 16 15 14 13 12 11 10 10 9 9 8 7 6 5 4 3 3 3 3
Wind_Direction
214 213 213 212 210 210 211 213 214 214 213 209 207 209 212 213 214 215 216 215 213 209 207 206 207 208 208 206 204 203 203 201 196 195 199 205 208 210 211 213 214 214 214 214 214 213 213 213 214 215 215 217 218 220 221 222 221 219 218 218 217 218 221 225 228 234 243 250 255
210 209 209 208 207 209 210 212 212 213 212 208 207 209 211 213 213 214 215 215 212 209 206 206 206 207 206 204 202 201 199 197 193 194 199 205 208 210 211 212 214 215 215 213 212 211 211 211 212 213 214 216 217 217 218 218 216 213 211 213 214 217 221 224 224 225 232 248 258
207 206 205 205 205 207 209 210 211 211 210 206 206 208 211 212 213 214 215 214 211 208 206 205 203 202 202 201 198 197 195 193 191 194 200 205 208 210 211 211 214 215 215 214 212 211 211 212 213 214 215 216 217 217 216 215 212 210 210 213 213 216 221 225 222 218 220 235 252
204 202 202 202 203 205 208 208 209 209 207 204 204 207 209 211 212 213 214 213 210 208 205 200 193 194 196 197 194 192 191 189 190 195 200 205 207 209 210 212 214 215 215 214 213 213 213 214 214 215 217 218 218 216 214 212 210 210 213 216 216 220 223 224 218 214 212 221 245
202 199 199 199 201 204 207 207 207 207 205 202 202 204 207 208 209 211 213 212 210 207 201 191 182 184 190 192 190 188 186 187 191 196 201 205 207 207 209 212 216 216 215 215 215 215 216 216 216 217 218 218 217 215 213 212 211 213 217 220 221 224 225 222 217 212 207 197 210
197 194 194 195 200 203 205 205 205 205 203 200 200 202 203 204 206 209 211 211 210 204 193 181 175 180 187 187 186 183 182 186 192 198 202 204 205 206 209 214 217 217 216 215 216 217 218 218 218 218 217 217 215 213 213 212 214 217 221 223 224 225 224 220 216 212 203 185 196
190 188 190 195 199 201 202 203 204 203 200 198 199 199 200 200 203 207 211 212 209 197 184 174 172 179 186 186 182 180 180 186 193 199 202 202 202 204 208 212 216 217 216 216 217 218 219 219 219 218 217 216 214 213 213 215 218 221 224 226 227 225 222 218 215 209 195 183 196
183 184 189 195 197 198 200 201 202 200 197 196 197 197 196 197 201 207 212 212 201 186 175 170 173 182 187 186 181 179 180 186 193 199 201 200 200 203 208 212 214 215 215 216 217 218 219 219 219 218 218 218 217 216 217 218 221 224 226 228 228 226 220 215 211 203 188 188 199
180 183 189 193 194 196 199 199 199 196 194 193 193 193 193 196 202 208 211 203 186 175 169 170 178 185 187 186 183 180 181 185 191 196 198 198 199 203 209 213 214 215 215 217 218 219 219 219 218 219 220 221 221 221 222 223 224 226 228 230 228 222 215 211 205 195 187 196 204
178 182 187 190 192 195 196 196 195 192 190 190 189 190 193 197 202 204 197 183 172 167 168 173 181 184 184 184 184 182 181 183 188 192 194 196 200 205 210 214 215 215 215 216 218 219 219 219 219 220 222 224 225 225 226 226 227 228 230 230 224 215 208 204 197 191 192 201 205
176 181 186 189 191 191 191 190 189 189 188 187 187 190 194 198 196 187 175 169 166 167 170 177 181 181 180 180 183 183 181 181 185 188 191 195 201 208 214 216 217 216 216 217 217 218 218 219 220 221 223 225 226 226 227 228 228 230 231 228 219 209 203 198 192 190 193 197 196
176 182 186 188 187 185 183 183 184 185 186 185 188 191 194 193 185 177 171 170 169 169 171 174 177 178 178 176 179 180 179 179 182 186 189 194 202 211 216 218 218 217 216 217 217 217 217 219 221 222 223 224 225 226 227 228 229 231 230 225 214 204 196 191 188 187 188 186 184
180 183 184 182 179 177 177 180 183 183 183 183 187 192 194 191 187 184 178 171 168 168 168 170 172 176 177 174 174 175 176 177 180 184 188 195 204 212 217 218 217 216 216 217 217 217 218 219 221 222 222 223 224 225 226 228 230 230 227 219 205 194 187 181 177 174 176 178 180
177 176 173 171 171 172 176 180 182 181 179 180 186 193 198 198 196 188 175 166 163 163 166 170 173 174 174 170 169 170 172 175 179 183 189 196 207 215 217 216 216 216 216 216 216 217 218 219 220 220 221 223 225 225 226 228 229 228 221 207 193 183 174 163 154 151 163 178 181
165 163 163 164 166 170 174 176 176 174 173 177 185 194 201 203 198 180 167 162 159 159 163 172 176 175 171 165 165 166 169 173 178 183 191 200 210 215 216 214 215 215 215 214 215 217 218 218 218 219 221 224 224 224 225 227 226 221 208 192 181 171 157 139 129 137 167 184 180
157 157 157 159 161 163 164 164 164 164 167 175 185 195 202 202 186 167 160 158 157 159 165 174 177 175 170 164 164 165 167 172 178 187 196 205 211 213 213 213 213 214 214 214 215 216 216 216 217 220 223 222 221 222 223 223 217 202 187 177 168 154 136 124 125 148 175 180 172
156 153 150 150 152 154 155 157 158 161 167 176 186 195 201 195 168 156 154 155 158 163 169 174 175 173 170 165 165 165 167 173 183 194 203 209 210 210 210 211 211 212 212 213 214 213 213 214 218 222 222 219 218 219 217 210 193 176 167 161 149 133 122 121 134 157 169 165 159
152 143 140 144 149 152 155 158 161 166 171 176 184 193 196 181 156 149 148 151 155 161 165 166 166 167 166 165 164 164 168 178 193 203 208 209 207 206 206 207 207 208 209 211 211 211 213 217 220 220 217 214 211 206 196 181 166 158 150 140 127 118 117 124 138 149 152 149 150
150 142 141 147 154 158 160 163 168 172 174 175 180 187 182 161 149 146 146 149 152 154 155 155 156 158 162 163 161 160 167 185 200 205 205 203 202 201 201 201 202 204 207 209 211 214 217 217 214 209 204 198 190 179 168 158 150 142 132 122 115 114 118 126 133 137 137 140 146
156 151 151 155 160 164 166 168 172 174 173 170 173 173 163 150 146 146 147 149 149 149 148 149 151 156 159 158 156 157 169 188 198 199 197 196 196 196 196 197 201 205 209 212 216 217 211 201 193 187 182 175 167 159 151 144 135 126 118 114 113 116 121 125 128 130 133 139 145
162 159 158 160 163 166 166 162 162 163 163 163 164 159 150 145 145 146 146 147 146 145 145 147 150 154 155 153 153 159 173 188 194 195 193 194 194 195 197 200 206 211 215 219 216 202 188 178 170 166 162 158 152 146 139 131 123 117 114 114 117 120 122 125 127 131 136 142 144
160 158 159 162 166 164 150 142 146 151 154 156 155 150 145 142 141 141 142 143 144 145 146 147 149 150 149 147 149 158 173 187 193 195 197 198 197 198 202 208 213 218 219 211 192 178 168 160 156 154 152 149 144 138 131 124 119 116 115 118 122 125 126 128 132 136 140 143 146
159 160 164 169 163 142 134 139 144 148 151 152 150 146 142 138 136 137 139 142 146 148 148 148 147 146 143 142 144 156 172 185 191 195 200 202 202 204 207 212 215 214 202 184 171 162 155 151 149 148 147 145 140 134 128 123 119 117 118 122 128 130 131 133 136 139 142 145 150
172 177 180 166 139 135 139 143 146 148 149 148 146 142 138 136 137 139 142 145 147 148 146 144 141 138 137 138 143 156 171 182 187 192 197 202 203 204 205 205 201 188 172 163 157 153 149 147 145 143 141 138 134 129 124 121 118 118 120 127 134 136 136 137 139 141 145 149 154
187 183 161 140 138 141 144 146 146 145 144 142 140 139 138 139 140 141 142 144 143 141 138 135 133 131 132 136 142 155 171 180 183 188 193 195 195 193 189 183 172 159 152 150 148 146 144 142 138 134 130 126 123 120 118 116 116 118 125 135 140 140 139 140 142 144 148 153 158
142 138 137 138 141 143 144 144 142 138 135 135 136 139 140 140 140 139 139 139 138 135 133 131 130 129 130 136 145 159 171 177 180 184 186 185 181 175 168 158 149 145 144 143 140 137 133 128 124 121 118 116 115 115 116 117 118 125 135 143 143 141 140 141 143 146 151 157 162
125 130 135 140 143 145 145 143 138 133 130 132 136 139 140 139 139 138 138 137 137 136 135 134 132 132 134 140 154 166 173 174 176 178 177 172 164 156 149 143 140 139 138 135 129 124 120 117 116 115 115 116 117 118 119 122 128 137 144 144 142 140 139 140 143 148 154 160 162
128 132 137 141 142 142 142 140 137 135 134 135 137 138 139 140 141 140 140 139 139 139 139 139 137 138 143 152 162 169 170 169 168 165 160 152 146 142 138 136 134 132 128 123 119 116 115 115 116 117 118 118 119 121 124 130 138 144 145 142 140 139 139 140 143 148 154 156 154
132 136 139 140 138 138 139 140 140 140 139 138 138 139 141 142 143 143 142 142 142 143 143 144 145 148 154 160 164 165 162 157 152 146 141 137 135 133 131 128 126 122 119 116 115 115 116 116 116 116 117 118 120 124 131 138 143 144 143 141 141 142 143 145 146 146 144 140 136
135 137 138 137 136 137 140 141 142 141 141 140 141 142 143 143 144 144 145 145 145 145 146 147 151 155 158 159 158 153 146 140 136 134 132 130 128 126 123 121 119 117 116 116 117 117 117 117 117 117 119 121 126 132 138 142 143 143 142 141 142 144 146 147 144 136 127 120 114
133 134 134 135 136 137 139 141 141 141 141 141 142 142 143 144 145 145 145 145 145 145 146 149 152 154 154 152 146 139 134 132 130 129 128 126 123 121 119 118 118 118 119 119 119 119 119 120 120 122 125 128 133 138 140 141 141 140 139 139 139 140 140 138 132 124 115 107 101
131 133 134 134 136 138 139 140 140 140 141 141 142 142 143 143 143 143 143 142 143 144 147 150 150 149 146 141 136 133 131 130 129 127 125 123 121 120 119 119 120 121 121 120 120 120 120 121 122 125 128 132 135 137 137 136 135 133 131 130 129 129 128 126 123 117 112 106 101
131 133 133 134 135 137 138 139 139 140 140 141 142 142 142 142 141 141 141 142 143 146 148 148 147 143 139 136 133 131 130 129 127 126 124 123 121 121 121 121 121 121 120 119 118 118 119 120 122 124 127 130 131 131 130 129 127 125 123 122 123 123 123 122 120 118 115 112 112
132 132 133 133 135 137 138 138 139 139 140 141 141 142 142 142 142 143 143 144 145 145 145 144 141 138 136 134 133 130 128 126 125 124 123 122 122 122 122 122 120 118 117 116 116 116 117 118 120 123 125 127 127 127 125 123 121 120 120 121 122 122 123 124 126 126 126 126 126
131 132 132 134 135 137 139 139 139 140 140 141 141 142 142 143 144 145 145 145 144 143 141 139 137 136 134 133 130 128 125 124 123 122 122 122 123 123 122 121 118 116 115 115 115 116 117 119 121 124 126 127 126 125 123 121 120 120 120 121 122 123 126 131 136 139 140 138 129
131 132 132 134 136 137 138 139 140 140 140 140 141 143 144 144 144 145 144 144 141 139 137 136 135 134 131 129 126 124 122 122 121 121 122 123 124 123 122 120 117 115 114 115 117 118 120 122 125 127 129 129 127 124 122 120 119 119 119 120 121 125 132 141 148 149 146 137 117
132 132 133 134 136 137 138 139 140 140 140 140 141 142 142 142 142 142 142 141 138 136 135 134 132 130 127 124 122 121 120 120 121 121 121 122 123 122 120 118 116 114 115 116 119 121 124 126 129 131 131 129 125 122 119 117 116 115 116 118 121 129 140 151 155 154 147 131 106
132 133 134 135 136 138 139 141 140 139 139 139 139 139 139 138 138 139 140 140 138 135 133 131 128 125 123 122 121 120 120 120 120 120 120 120 120 119 117 115 115 115 117 120 123 126 129 130 131 130 129 126 122 118 115 113 112 113 115 119 126 136 148 157 159 157 149 133 91
132 133 135 137 138 139 140 140 139 139 138 138 137 136 136 136 136 137 138 138 136 133 130 127 124 123 122 121 121 120 120 120 120 119 118 118 118 117 117 117 117 119 122 125 127 129 130 129 127 126 123 120 117 114 111 111 112 114 119 125 134 145 154 161 163 162 164 192 284
132 133 135 137 139 139 139 138 137 137 137 136 136 135 135 136 136 137 137 135 133 130 127 124 122 122 122 122 122 121 120 119 119 119 119 120 120 121 121 121 123 124 126 127 127 126 125 123 120 118 117 115 112 110 110 112 114 119 124 131 140 150 158 163 167 175 198 247 274
132 133 134 135 137 138 137 135 135 135 135 135 135 135 136 136 137 136 134 132 129 127 125 123 122 122 123 123 122 122 121 120 121 122 123 124 125 125 125 125 125 124 124 123 121 120 118 116 115 113 113 111 111 110 111 113 116 121 128 136 145 153 160 166 174 193 228 257 273
Height
1354 1356 1358 1360 1362 1364 1365 1366 1368 1370 1372 1373 1375 1377 1378 1380 1382 1383 1384 1386 1388 1389 1391 1393 1394 1396 1398 1400 1402 1403 1404 1406 1408 1411 1413 1416 1418 1419 1422 1424 1427 1428 1430 1431 1432 1434 1435 1437 1439 1440 1442 1443 1445 1446 1448 1449 1451 1454 1456 1459 1463 1465 1467 1469 1470 1472 1473 1473 1475
1353 1355 1357 1359 1361 1363 1364 1366 1368 1370 1371 1373 1375 1377 1378 1380 1381 1383 1384 1385 1387 1389 1391 1392 1394 1395 1397 1399 1401 1402 1403 1405 1408 1410 1413 1415 1417 1419 1422 1424 1426 1428 1429 1430 1432 1433 1435 1437 1438 1440 1442 1443 1444 1446 1448 1449 1452 1454 1457 1459 1462 1464 1466 1468 1469 1471 1472 1473 1474
1352 1354 1356 1358 1360 1362 1363 1364 1367 1369 1370 1372 1374 1376 1378 1379 1381 1382 1383 1385 1387 1388 1390 1392 1393 1394 1396 1398 1400 1401 1403 1404 1407 1409 1412 1414 1417 1419 1422 1424 1426 1428 1429 1430 1431 1433 1434 1436 1438 1440 1441 1443 1444 1446 1447 1450 1452 1455 1457 1459 1462 1464 1465 1466 1468 1469 1471 1472 1473
1350 1353 1355 1357 1359 1361 1362 1363 1366 1368 1370 1372 1374 1376 1378 1379 1380 1382 1383 1385 1387 1388 1389 1391 1393 1394 1396 1397 1399 1400 1402 1404 1407 1409 1412 1414 1417 1419 1422 1424 1426 1427 1428 1430 1431 1433 1435 1436 1438 1440 1441 1443 1444 1445 1447 1450 1453 1455 1457 1459 1461 1463 1464 1464 1466 1468 1469 1471 1472
1349 1352 1354 1356 1359 1360 1362 1364 1366 1368 1370 1372 1374 1376 1377 1379 1380 1382 1383 1384 1386 1387 1389 1390 1392 1394 1395 1396 1398 1400 1402 1404 1407 1409 1412 1414 1417 1419 1422 1423 1425 1427 1428 1429 1431 1433 1434 1436 1438 1440 1441 1442 1444 1445 1448 1450 1453 1454 1456 1458 1460 1461 1463 1464 1465 1467 1468 1470 1472
1349 1351 1354 1356 1358 1360 1362 1364 1366 1368 1370 1372 1373 1375 1377 1378 1380 1381 1383 1384 1385 1387 1388 1390 1392 1393 1395 1396 1398 1399 1402 1404 1407 1409 1412 1414 1417 1419 1421 1423 1425 1426 1428 1429 1431 1433 1434 1436 1438 1439 1441 1442 1444 1446 1448 1450 1452 1454 1456 1457 1459 1461 1462 1464 1465 1467 1468 1469 1471
1349 1352 1354 1357 1358 1360 1362 1364 1366 1368 1370 1372 1373 1375 1377 1378 1380 1381 1382 1383 1385 1386 1388 1389 1391 1393 1395 1395 1397 1399 1402 1404 1407 1409 1411 1414 1417 1419 1421 1423 1424 1426 1427 1429 1430 1432 1434 1435 1437 1438 1440 1442 1444 1446 1448 1450 1452 1453 1455 1457 1459 1460 1462 1463 1465 1467 1468 1468 1470
1350 1352 1354 1357 1358 1360 1362 1364 1366 1368 1370 1372 1373 1375 1377 1378 1379 1381 1382 1383 1384 1386 1387 1389 1391 1393 1394 1395 1397 1399 1402 1404 1407 1409 1411 1414 1416 1419 1421 1423 1424 1426 1427 1428 1430 1432 1433 1435 1436 1438 1439 1441 1443 1446 1448 1450 1452 1453 1455 1457 1458 1460 1461 1463 1465 1466 1467 1468 1470
1351 1353 1355 1357 1359 1361 1363 1364 1366 1368 1370 1372 1374 1376 1377 1378 1379 1381 1382 1383 1384 1385 1387 1389 1391 1393 1394 1396 1398 1399 1402 1404 1407 1409 1411 1414 1416 1419 1421 1423 1424 1426 1427 1428 1430 1431 1433 1434 1436 1438 1439 1441 1443 1445 1448 1449 1452 1453 1455 1456 1458 1459 1461 1463 1465 1466 1466 1468 1469
1352 1354 1356 1358 1359 1361 1363 1365 1366 1368 1370 1373 1374 1376 1377 1378 1379 1381 1382 1383 1384 1385 1387 1389 1391 1393 1394 1396 1398 1400 1402 1404 1407 1409 1412 1414 1416 1418 1421 1422 1423 1425 1427 1428 1430 1431 1433 1434 1436 1438 1439 1441 1443 1445 1448 1450 1452 1453 1455 1456 1457 1459 1461 1463 1464 1465 1466 1467 1469
1353 1354 1356 1358 1360 1362 1363 1365 1367 1369 1371 1373 1374 1376 1377 1378 1380 1381 1382 1383 1384 1386 1388 1390 1391 1393 1395 1397 1398 1400 1402 1404 1407 1409 1412 1414 1416 1418 1420 1422 1423 1424 1426 1428 1429 1431 1433 1434 1436 1438 1439 1442 1443 1446 1448 1450 1452 1453 1455 1456 1458 1459 1461 1463 1464 1464 1466 1467 1469
1353 1355 1357 1358 1360 1362 1364 1366 1368 1369 1371 1373 1374 1376 1377 1378 1380 1381 1382 1384 1385 1387 1388 1390 1392 1393 1395 1397 1399 1400 1402 1404 1407 1409 1412 1414 1416 1418 1420 1421 1423 1424 1426 1428 1429 1431 1433 1434 1436 1438 1439 1441 1443 1446 1448 1450 1452 1453 1454 1456 1458 1460 1461 1463 1463 1464 1465 1467 1469
1355 1356 1358 1359 1361 1363 1365 1367 1368 1370 1371 1373 1374 1376 1377 1378 1379 1380 1382 1383 1385 1387 1389 1391 1393 1394 1396 1398 1399 1401 1403 1405 1407 1409 1412 1414 1416 1418 1420 1421 1423 1424 1426 1428 1429 1431 1433 1434 1436 1438 1440 1442 1444 1446 1448 1449 1451 1453 1454 1456 1458 1459 1461 1462 1462 1463 1465 1468 1470
1356 1358 1359 1361 1362 1364 1366 1367 1368 1370 1372 1373 1375 1376 1377 1378 1378 1381 1383 1383 1385 1387 1390 1391 1393 1395 1397 1398 1399 1401 1403 1405 1407 1410 1412 1414 1416 1418 1420 1421 1423 1424 1426 1428 1429 1431 1433 1435 1436 1438 1440 1442 1444 1446 1448 1449 1451 1453 1454 1456 1458 1459 1460 1460 1462 1463 1465 1468 1470
1357 1359 1360 1362 1363 1365 1366 1368 1369 1371 1372 1373 1374 1376 1377 1378 1379 1381 1383 1384 1385 1388 1390 1392 1394 1396 1398 1399 1400 1402 1403 1406 1408 1410 1413 1415 1417 1418 1420 1421 1423 1425 1426 1428 1430 1432 1433 1435 1437 1439 1441 1443 1445 1446 1448 1449 1451 1453 1454 1456 1458 1458 1459 1459 1461 1464 1467 1469 1471
1358 1359 1361 1363 1364 1365 1367 1368 1369 1371 1372 1373 1375 1376 1377 1378 1380 1381 1383 1384 1386 1389 1391 1393 1394 1396 1398 1400 1401 1403 1404 1407 1409 1411 1413 1415 1417 1418 1420 1422 1423 1425 1427 1428 1430 1433 1434 1436 1438 1440 1442 1443 1445 1446 1448 1449 1451 1453 1455 1456 1457 1457 1458 1459 1462 1465 1468 1470 1471
1359 1360 1362 1363 1365 1366 1367 1368 1370 1371 1372 1373 1375 1376 1377 1379 1380 1382 1383 1385 1387 1390 1392 1393 1395 1397 1399 1400 1402 1403 1406 1408 1410 1412 1414 1416 1417 1418 1420 1422 1423 1425 1427 1429 1431 1433 1435 1437 1438 1440 1442 1443 1445 1447 1448 1449 1451 1453 1454 1455 1456 1456 1457 1460 1463 1466 1469 1470 1471
1360 1362 1363 1364 1366 1367 1368 1369 1370 1371 1373 1374 1375 1376 1378 1379 1381 1382 1384 1386 1388 1390 1393 1394 1397 1398 1400 1401 1403 1405 1407 1409 1411 1413 1414 1416 1417 1419 1421 1422 1424 1426 1428 1430 1432 1433 1436 1438 1439 1441 1442 1444 1445 1447 1448 1449 1451 1452 1453 1454 1455 1456 1458 1461 1465 1468 1469 1471 1472
1361 1362 1363 1365 1366 1367 1368 1370 1371 1372 1373 1374 1375 1377 1378 1380 1382 1383 1385 1387 1389 1391 1393 1396 1398 1399 1400 1402 1404 1406 1408 1411 1412 1413 1415 1416 1418 1419 1421 1423 1424 1426 1428 1430 1433 1434 1436 1438 1439 1441 1442 1444 1445 1447 1448 1449 1450 1451 1452 1453 1454 1457 1459 1463 1466 1468 1470 1471 1473
1361 1362 1363 1364 1366 1367 1368 1370 1372 1373 1374 1375 1376 1378 1380 1381 1383 1384 1386 1388 1390 1392 1394 1396 1398 1400 1401 1403 1405 1407 1409 1411 1413 1413 1415 1417 1418 1420 1421 1423 1425 1427 1429 1431 1433 1435 1437 1438 1439 1441 1442 1444 1445 1446 1447 1448 1450 1451 1452 1453 1456 1458 1462 1464 1467 1469 1470 1472 1473
1361 1361 1362 1364 1366 1367 1369 1370 1372 1374 1375 1376 1377 1379 1381 1382 1383 1385 1387 1389 1391 1393 1395 1397 1398 1400 1402 1403 1406 1408 1410 1412 1413 1414 1416 1417 1419 1420 1422 1424 1426 1428 1429 1432 1434 1436 1437 1438 1439 1441 1442 1443 1444 1445 1447 1448 1449 1451 1453 1455 1458 1460 1463 1465 1467 1469 1471 1473 1474
1362 1363 1363 1365 1366 1368 1370 1371 1373 1374 1376 1377 1379 1380 1382 1383 1384 1386 1388 1390 1392 1394 1396 1398 1400 1401 1403 1404 1406 1408 1410 1412 1413 1415 1417 1418 1420 1422 1424 1425 1427 1428 1431 1433 1434 1436 1438 1438 1439 1440 1441 1442 1444 1445 1447 1448 1450 1452 1454 1456 1459 1462 1464 1466 1468 1470 1472 1473 1474
1364 1365 1366 1367 1368 1369 1371 1373 1374 1375 1377 1378 1380 1382 1383 1384 1386 1388 1389 1392 1393 1395 1397 1399 1401 1403 1404 1406 1408 1409 1411 1413 1414 1416 1418 1419 1421 1423 1425 1426 1428 1430 1432 1433 1435 1436 1438 1438 1439 1440 1441 1442 1443 1445 1447 1448 1450 1453 1455 1458 1461 1463 1465 1467 1469 1470 1472 1473 1474
1366 1366 1367 1367 1369 1371 1373 1373 1375 1376 1378 1380 1381 1383 1384 1385 1387 1389 1391 1393 1395 1397 1398 1400 1402 1404 1405 1407 1408 1410 1412 1413 1415 1417 1418 1420 1422 1424 1426 1428 1429 1431 1432 1434 1436 1437 1437 1438 1438 1439 1441 1442 1443 1445 1447 1449 1451 1454 1457 1460 1463 1465 1466 1468 1469 1471 1472 1473 1474
1366 1367 1368 1370 1372 1373 1374 1375 1376 1378 1379 1381 1383 1384 1385 1387 1388 1390 1393 1394 1396 1398 1399 1401 1403 1405 1406 1408 1410 1411 1413 1414 1416 1418 1419 1421 1423 1425 1427 1428 1430 1431 1433 1435 1437 1437 1438 1438 1439 1440 1442 1443 1444 1446 1448 1450 1452 1455 1459 1463 1465 1466 1467 1468 1469 1471 1472 1473 1474
1367 1369 1371 1373 1373 1374 1375 1376 1378 1379 1381 1383 1384 1386 1387 1389 1390 1392 1394 1396 1397 1399 1400 1402 1404 1406 1407 1409 1411 1412 1414 1415 1417 1419 1420 1422 1424 1426 1428 1429 1431 1433 1434 1436 1437 1438 1439 1440 1441 1442 1443 1444 1446 1448 1450 1452 1454 1458 1462 1465 1466 1467 1468 1469 1470 1471 1473 1473 1475
1370 1372 1373 1374 1375 1375 1377 1378 1379 1381 1383 1384 1386 1387 1389 1390 1392 1393 1395 1397 1398 1400 1402 1403 1405 1407 1408 1410 1412 1413 1415 1417 1418 1420 1422 1423 1425 1427 1428 1430 1432 1433 1436 1438 1439 1440 1441 1442 1443 1444 1445 1447 1448 1449 1451 1454 1457 1461 1464 1465 1467 1468 1469 1470 1471 1472 1473 1474 1475
1373 1373 1374 1375 1376 1377 1378 1380 1381 1383 1384 1386 1387 1389 1390 1392 1393 1395 1396 1398 1399 1401 1403 1404 1406 1408 1409 1411 1413 1414 1416 1418 1420 1422 1423 1425 1427 1428 1430 1431 1433 1435 1437 1439 1440 1441 1443 1444 1445 1446 1447 1448 1449 1451 1453 1456 1460 1463 1464 1466 1467 1468 1470 1471 1472 1473 1474 1475 1475
1374 1375 1376 1377 1378 1379 1380 1381 1383 1384 1386 1387 1389 1390 1392 1393 1395 1396 1398 1399 1401 1402 1404 1406 1407 1409 1410 1412 1414 1416 1418 1419 1421 1423 1425 1426 1428 1429 1430 1432 1433 1436 1438 1440 1442 1443 1444 1445 1446 1447 1448 1449 1451 1453 1456 1459 1461 1463 1465 1466 1468 1469 1471 1472 1473 1474 1475 1475 1476
1376 1377 1377 1378 1379 1380 1382 1383 1385 1386 1388 1389 1390 1392 1393 1395 1396 1398 1399 1401 1402 1403 1405 1407 1408 1410 1412 1414 1416 1418 1419 1421 1423 1424 1426 1427 1429 1430 1431 1433 1435 1437 1439 1441 1443 1444 1445 1446 1447 1448 1449 1451 1453 1456 1458 1461 1463 1464 1465 1467 1469 1470 1471 1473 1473 1475 1476 1477 1477
1378 1378 1379 1380 1381 1382 1383 1385 1387 1388 1389 1391 1392 1393 1395 1396 1398 1399 1401 1402 1403 1405 1407 1408 1410 1412 1414 1416 1418 1420 1421 1423 1424 1426 1427 1428 1430 1431 1432 1434 1436 1438 1441 1442 1443 1444 1446 1447 1448 1449 1451 1453 1455 1458 1460 1462 1463 1465 1466 1468 1469 1471 1472 1473 1474 1476 1477 1478 1478
1379 1380 1381 1382 1383 1384 1386 1387 1388 1390 1391 1393 1394 1395 1397 1398 1400 1401 1403 1404 1405 1407 1408 1410 1412 1414 1416 1418 1420 1421 1423 1424 1426 1427 1429 1430 1431 1432 1433 1435 1438 1440 1442 1443 1444 1445 1447 1448 1450 1451 1453 1455 1457 1459 1461 1463 1464 1465 1467 1468 1470 1471 1472 1473 1475 1476 1477 1478 1478
1382 1383 1383 1384 1385 1387 1388 1389 1391 1392 1393 1395 1396 1397 1398 1400 1401 1403 1404 1406 1408 1409 1411 1413 1414 1416 1418 1420 1421 1423 1424 1426 1427 1429 1430 1431 1432 1433 1434 1437 1439 1441 1442 1444 1445 1447 1448 1450 1451 1453 1455 1457 1459 1460 1462 1463 1464 1466 1467 1468 1470 1472 1473 1474 1475 1477 1478 1478 1479
1384 1385 1386 1387 1388 1389 1390 1392 1393 1394 1395 1397 1398 1399 1400 1402 1403 1405 1406 1408 1409 1411 1413 1414 1416 1418 1419 1421 1422 1423 1425 1427 1429 1430 1431 1432 1433 1434 1436 1438 1440 1442 1444 1445 1447 1448 1450 1452 1453 1455 1457 1458 1460 1461 1463 1464 1465 1466 1468 1469 1471 1472 1473 1475 1476 1477 1478 1478 1479
1386 1387 1388 1389 1390 1391 1392 1393 1395 1396 1397 1398 1400 1401 1403 1404 1405 1406 1408 1410 1411 1413 1415 1417 1418 1419 1421 1423 1424 1425 1427 1429 1430 1432 1433 1433 1434 1436 1438 1440 1442 1444 1445 1447 1449 1451 1452 1453 1455 1457 1458 1459 1460 1462 1463 1464 1465 1467 1468 1470 1471 1473 1474 1475 1476 1477 1478 1478 1479
1389 1389 1390 1391 1393 1393 1395 1396 1397 1398 1399 1400 1401 1403 1404 1406 1407 1408 1410 1411 1413 1415 1416 1418 1419 1421 1423 1424 1426 1428 1429 1430 1432 1433 1434 1435 1436 1438 1440 1442 1443 1445 1447 1449 1451 1452 1453 1455 1457 1458 1459 1460 1461 1462 1463 1464 1466 1467 1469 1470 1472 1473 1474 1475 1476 1477 1478 1479 1479
1391 1392 1392 1393 1394 1396 1397 1398 1399 1400 1401 1402 1403 1405 1406 1408 1409 1411 1412 1413 1415 1416 1418 1420 1421 1423 1425 1426 1428 1430 1431 1433 1433 1434 1436 1437 1438 1440 1442 1443 1445 1446 1448 1450 1452 1453 1455 1457 1458 1459 1460 1461 1462 1463 1464 1465 1466 1468 1469 1471 1472 1473 1475 1476 1477 1478 1478 1479 1480
1393 1394 1394 1395 1397 1398 1399 1400 1401 1402 1403 1404 1406 1407 1408 1410 1411 1413 1414 1416 1417 1418 1420 1421 1423 1425 1427 1428 1430 1432 1433 1435 1435 1436 1437 1439 1441 1443 1444 1445 1446 1448 1450 1452 1453 1455 1457 1458 1459 1461 1462 1463 1463 1464 1465 1466 1467 1468 1470 1471 1473 1474 1475 1476 1477 1478 1479 1479 1479
1396 1397 1397 1398 1399 1400 1401 1402 1403 1404 1406 1407 1408 1410 1411 1412 1413 1415 1417 1418 1418 1420 1422 1423 1426 1428 1429 1430 1432 1433 1435 1436 1437 1438 1439 1442 1444 1445 1446 1447 1448 1450 1452 1454 1455 1457 1458 1459 1461 1462 1463 1463 1464 1465 1465 1467 1468 1469 1471 1472 1474 1475 1476 1477 1478 1478 1479 1479 1479
1399 1399 1399 1400 1401 1402 1403 1404 1406 1407 1408 1409 1411 1412 1413 1414 1416 1417 1418 1419 1421 1423 1424 1426 1428 1429 1431 1432 1433 1435 1436 1438 1439 1441 1442 1444 1446 1448 1449 1450 1451 1452 1454 1455 1457 1458 1460 1461 1462 1463 1464 1464 1465 1466 1467 1468 1469 1470 1472 1473 1474 1475 1476 1477 1478 1478 1479 1479 1479
1401 1401 1402 1403 1403 1404 1405 1407 1408 1409 1411 1412 1413 1414 1415 1416 1418 1419 1420 1422 1423 1425 1426 1428 1429 1431 1433 1434 1435 1436 1438 1439 1441 1443 1445 1447 1449 1450 1452 1453 1453 1454 1456 1457 1458 1460 1461 1462 1463 1464 1465 1466 1466 1467 1468 1469 1470 1471 1473 1474 1475 1476 1477 1477 1478 1478 1479 1479 1480